ELECTRON KICK STAGE R/B, 45111

Orbit data source: Space-Track

ELECTRON KICK STAGE R/B, 45111 is space debris in LEO originally from a launch on Fri, 31 Jan 2020 UTC launched from the Rocket Lab Launch Complex (RLLC). Debris objects in space refer to the collection of defunct objects orbiting the Earth. Examples of debris include non-operational satellites, rocket bodies, and fragments generated from explosions, collisions, or faulty payload assembly.

Loading next visibility...
ELECTRON KICK STAGE R/B details
Identifier
45111, 2020-007B
Orbit
LEO
Last TLE update13 hours ago
Origin
Flag of USRocket Lab (US)
ManufacturerRocket Lab
MissionSpacecraft
Bus & MotorKICK STAGE, CURIE
Mass40 kg wet, 40 kg dry
Launch date (UTC)
2020-01-31 (5 years ago)
Launch vehicleUnknown
Launch site
Rocket Lab Launch Complex (RLLC)
Object type
Payload
Rocket body
Debris
Shape & HBRTrunc Cone, 1.4 m
Radar Cross Section0.760 m², Medium (>0.1 m² and < 1m²)

Expand to show TLE details & history

TLE from 13 hours ago
0 ELECTRON KICK STAGE R/B
1 45111U 20007B   24361.22235147  .00030387  00000-0  12334-2 0  9999
2 45111  69.9885 289.4519 0009052  77.6892 282.5293 15.24444919 34249
Epoch: 2024-12-26T05:20Z
Definitive object data (Epoch: 2024-12-26T05:20:11.167Z)
Latitude-0.00003°
Longitude114.20052°
Altitude493.56 km
Speed7.619 km/s
True Right ascension19h 17m 48s
True Declination0° 00' 00"
Sunlit
Object was in daylight at TLE epoch
Visualization TLE readout
Latitude61.14369°
Longitude-108.32411°
Altitude497.067 km
Speed7.625 km/s
Apparent Right ascension05h 15m 27s
Apparent Declination13° 22' 45"
Sunlit
Object is in full shadow
Visualization observer readout
Local Sidereal Time17:47:44
Azimuth9.744° NNE
Elevation-36.178°
Doppler factor1
Orbital elements
Apogee altitude496.596 km
Perigee altitude484.161 km
Semi-major axis6,868.515 km
Eccentricity0.0009052
Inclination69.9885°
RAAN289.4519°
Arg. of periapsis77.6892°
True anomaly282.42802°
Mean anomaly282.5293°
Eccentric anomaly282.47866°
Mean motion3.81284 °/min
BSTAR0.0012334
Orbital period94.42 mins
Loading maneuver chart data...
Loading historical data...
Loading historical data...
Loading historical data...
Loading historical data...
Loading historical data...
Loading historical data...
Loading historical data...
Other satellites on launch #7 in the year 2020 (2020-01-31 UTC)

ELECTRON KICK STAGE R/B Visibility forecast

Observer location: undefined°, undefined

Span
Click to sort rows by Start time (UTC) header in descending order
Start Az.
Max El. time (UTC)
Max El. Az.
Max El.
End time (UTC)
End Az.
7 mins2024-12-26 21:13:14.853Z219.441° SW2024-12-26 21:16:14.853Z267.793° W36.867°2024-12-26 21:20:14.853Z14.637° NNE
4 mins2024-12-27 07:07:14.853Z287.447° WNW2024-12-27 07:08:14.853Z260.059° W26.023°2024-12-27 07:11:14.853Z194.655° SSW
|